{"data":{"norad_id":63696,"intl_designator":"2025-086K","name":"HULIANWANG DIGUI-29","alt_names":[],"object_type":"PAYLOAD","status":"ACTIVE","operator":null,"country":"PRC","launch_date":"2025-04-28","launch_site_code":"WSC","launch_vehicle":null,"mission":null,"orbit_class":"UNKNOWN","rcs_meters":null,"size_class":null,"mass_kg":null,"dimensions":null,"purposes":[],"wikipedia_slug":null,"has_3d_model":false,"image_url":null,"decayed_at":null,"tle_current":{"epoch":"2026-09-21T22:30:39.275712Z","epoch_age_seconds":83484,"freshness":"FRESH","line1":"1 63696U 25086K   26264.93795458 -.00000056  00000+0 -16439-3 0  9999","line2":"2 63696  86.4964 280.4380 0001875  79.2351 280.8994 13.24412674 67661","mean_motion":13.24412674,"eccentricity":0.0001875,"inclination_deg":86.4964,"raan_deg":280.438,"arg_perigee_deg":79.2351,"mean_anomaly_deg":280.8994,"bstar":-0.00016439,"rev_number":6766,"period_min":108.7274403416,"perigee_km":1166.4971443937,"apogee_km":1169.3269127795,"semimajor_km":7546.0490285866,"source":"CELESTRAK","updated_at":"2026-09-22T09:00:29.284471Z"}}}